Hlavní strana
METAR-TAF:

METAR-TAF

Letiště :

MidCoast Regional Airport / Wright Army Airfield

Hinesville, Georgie, Spojené státy americké

zeměpisná šířka: 31-53N, zeměpisná délka: 081-34W, výška: 14 m

Aktuální stav počasí

Zpráva byla vytvořena před 39 minutami, v 16:56 UTC
Jihovýchodní vítr 7 kt
Teplota 32°C
Vlhkost vzduchu 59%
Tlak 1014 hPa
Viditelnost: 16.1 km

METAR: KLHW 031656Z AUTO 14007KT 10SM M 32/23 A2994 RMK AO2 SLP141 T03160231 CHINO RWY15 $

Čas: 13:35 (17:35 UTC)


TAF: chybějící

Stav a předpovědi počasí z více než 4 000 letišť (zprávy METAR a TAF).

Červené a žluté tečky na mapě představují dostupné meteorologické stanice.

Když kurzor umístíte na tečku, zobrazí se název stanice.

Pak kliknutím zobrazíte stav a předpověď počasí.

Chcete-li změnit mapu, kliknutím na zelené tlačítko se znaménkem +mapu přiblížíte, kliknutím na zelené tlačítko se znaménkem – mapu oddálíte a kliknutím na zelené šipky přejdete na sousední mapy.


METAR-TAF: